Zurück zum Katalog

AISSAT 1

AktivWissenschaftSSO
NORAD 36797·PAYLOAD·🇳🇴 Norway

Gestartet Jul 12, 2010 von Satish Dhawan Space Centre

Loading…

Nächste Überflüge (nächste 24 Stunden)

TLE

AktuellSource: Space-Track

Epoche: Sep 13, 2026, 16:15 UTC

1 36797U 10035C   26256.67723333  .00002181  00000-0  19153-3 0  9990
2 36797  98.0804 159.0055 0010431 118.8482 241.3787 14.97666854877469

Verfolge AISSAT 1 in Echtzeit mit AllMySat

Download on the App Store